| time (UTC) | temp F | wind direction | speed knots | gust knots | rain 1hr in | rain 24hr in | rain mn in | humidity % | barometer mb |
| 20260504130504 | 59 | 264 | 4.3 | 12.2 | 0.00 | 0.00 | 0.00 | 44 | 1012.2 |
| 20260504110505 | 40 | 265 | 0.0 | 0.0 | 0.00 | 0.00 | 0.00 | 87 | 1012.5 |
| 20260504100504 | 38 | 265 | 0.0 | 0.0 | 0.00 | 0.00 | 0.00 | 86 | 1012.5 |
| 20260504081503 | 37 | 265 | 0.0 | 0.0 | 0.00 | 0.00 | 0.00 | 87 | 1012.4 |
| 20260504081005 | 37 | 265 | 0.0 | 0.0 | 0.00 | 0.00 | 0.00 | 87 | 1012.3 |
| 20260504050504 | 40 | 265 | 0.0 | 0.0 | 0.00 | 0.00 | 0.00 | 82 | 1012.0 |
| 20260504050004 | 40 | 265 | 0.0 | 0.0 | 0.00 | 0.00 | 0.00 | 82 | 1012.0 |
| 20260504045504 | 40 | 265 | 0.0 | 0.0 | 0.00 | 0.00 | 0.00 | 82 | 1012.0 |
| 20260504045004 | 40 | 265 | 0.0 | 0.0 | 0.00 | 0.00 | 0.00 | 82 | 1011.8 |
| 20260504044504 | 40 | 265 | 0.0 | 0.0 | 0.00 | 0.00 | 0.00 | 82 | 1011.6 |
| 20260504044004 | 40 | 265 | 0.0 | 0.0 | 0.00 | 0.00 | 0.00 | 82 | 1011.5 |
| 20260504043004 | 40 | 265 | 0.0 | 0.0 | 0.00 | 0.00 | 0.00 | 81 | 1011.5 |
| 20260504042504 | 40 | 265 | 0.0 | 0.0 | 0.00 | 0.00 | 0.00 | 81 | 1011.5 |
| 20260504042004 | 41 | 265 | 0.0 | 0.0 | 0.00 | 0.00 | 0.00 | 81 | 1011.5 |
| 20260504041504 | 41 | 265 | 0.0 | 0.0 | 0.00 | 0.00 | 0.00 | 80 | 1011.4 |
| 20260504041004 | 41 | 265 | 0.0 | 0.0 | 0.00 | 0.00 | 0.00 | 79 | 1011.4 |
| 20260504040504 | 41 | 265 | 0.0 | 0.0 | 0.00 | 0.00 | 0.00 | 79 | 1011.3 |
| 20260504040004 | 41 | 265 | 0.0 | 0.0 | 0.00 | 0.00 | 0.00 | 78 | 1011.3 |
| 20260504035504 | 41 | 265 | 0.0 | 0.0 | 0.00 | 0.00 | 0.00 | 77 | 1011.4 |
| 20260504035004 | 41 | 265 | 0.0 | 0.0 | 0.00 | 0.00 | 0.00 | 77 | 1011.3 |
| 20260504034504 | 41 | 265 | 0.0 | 0.0 | 0.00 | 0.00 | 0.00 | 76 | 1011.3 |
| 20260504033504 | 42 | 265 | 0.0 | 0.0 | 0.00 | 0.00 | 0.00 | 75 | 1011.3 |
| 20260504032503 | 42 | 265 | 0.0 | 0.0 | 0.00 | 0.00 | 0.00 | 76 | 1011.3 |
| 20260504032004 | 42 | 265 | 0.0 | 0.0 | 0.00 | 0.00 | 0.00 | 76 | 1011.4 |
| 20260504031004 | 43 | 265 | 0.0 | 0.0 | 0.00 | 0.00 | 0.00 | 74 | 1011.3 |
| 20260504030004 | 43 | 265 | 0.0 | 0.0 | 0.00 | 0.00 | 0.00 | 73 | 1011.3 |
| 20260504025504 | 43 | 265 | 0.0 | 0.0 | 0.00 | 0.00 | 0.00 | 72 | 1011.4 |
| 20260504025004 | 43 | 265 | 0.0 | 0.0 | 0.00 | 0.00 | 0.00 | 73 | 1011.4 |
| 20260504024504 | 44 | 265 | 0.0 | 0.0 | 0.00 | 0.00 | 0.00 | 74 | 1011.4 |
| 20260504024005 | 44 | 265 | 0.0 | 0.0 | 0.00 | 0.00 | 0.00 | 72 | 1011.4 |
| 20260504023004 | 44 | 265 | 0.0 | 0.0 | 0.00 | 0.00 | 0.00 | 72 | 1011.4 |
| 20260504022004 | 45 | 265 | 0.0 | 0.0 | 0.00 | 0.00 | 0.00 | 68 | 1011.4 |
| 20260504021504 | 45 | 265 | 0.0 | 0.0 | 0.00 | 0.00 | 0.00 | 68 | 1011.4 |
| 20260504015504 | 47 | 265 | 0.0 | 0.0 | 0.00 | 0.00 | 0.00 | 66 | 1011.4 |
| 20260504015005 | 47 | 265 | 0.0 | 0.0 | 0.00 | 0.00 | 0.00 | 65 | 1011.4 |
| 20260504014504 | 48 | 265 | 0.0 | 0.0 | 0.00 | 0.00 | 0.00 | 63 | 1011.3 |
| 20260504014003 | 49 | 265 | 0.0 | 0.0 | 0.00 | 0.00 | 0.00 | 62 | 1011.3 |
| 20260504013504 | 49 | 265 | 0.0 | 0.0 | 0.00 | 0.00 | 0.00 | 58 | 1011.3 |
| 20260504013004 | 50 | 265 | 0.0 | 0.0 | 0.00 | 0.00 | 0.00 | 59 | 1011.2 |
| 20260504011004 | 51 | 265 | 0.0 | 0.0 | 0.00 | 0.00 | 0.00 | 51 | 1011.3 |
| 20260504010505 | 52 | 265 | 0.0 | 0.0 | 0.00 | 0.00 | 0.00 | 52 | 1011.1 |
| 20260504005504 | 53 | 265 | 0.0 | 0.0 | 0.00 | 0.00 | 0.00 | 50 | 1011.0 |
| 20260504005004 | 53 | 265 | 0.0 | 0.0 | 0.00 | 0.00 | 0.00 | 47 | 1010.9 |
| 20260504004004 | 54 | 265 | 0.0 | 2.6 | 0.00 | 0.00 | 0.00 | 46 | 1010.9 |
| 20260504002504 | 55 | 265 | 0.9 | 1.7 | 0.00 | 0.00 | 0.00 | 42 | 1010.7 |
| 20260504001504 | 56 | 265 | 0.0 | 1.7 | 0.00 | 0.00 | 0.00 | 40 | 1010.6 |
| 20260504001004 | 57 | 265 | 0.0 | 2.6 | 0.00 | 0.00 | 0.00 | 41 | 1010.5 |
| 20260504000503 | 57 | 266 | 0.9 | 4.3 | 0.00 | 0.00 | 0.00 | 39 | 1010.4 |
| 20260504000004 | 57 | 272 | 0.0 | 2.6 | 0.00 | 0.00 | 0.00 | 38 | 1010.5 |
| 20260503235503 | 57 | 272 | 1.7 | 4.3 | 0.00 | 0.00 | 0.00 | 38 | 1010.4 |
| 20260503235005 | 57 | 273 | 0.9 | 4.3 | 0.00 | 0.00 | 0.00 | 37 | 1010.2 |
| 20260503234004 | 58 | 273 | 1.7 | 5.2 | 0.00 | 0.00 | 0.00 | 38 | 1010.1 |
| 20260503233504 | 58 | 276 | 0.9 | 4.3 | 0.00 | 0.00 | 0.00 | 38 | 1010.0 |
| 20260503233004 | 58 | 281 | 1.7 | 4.3 | 0.00 | 0.00 | 0.00 | 38 | 1010.0 |
| 20260503232503 | 58 | 282 | 0.9 | 2.6 | 0.00 | 0.00 | 0.00 | 37 | 1010.0 |
| 20260503231504 | 58 | 343 | 0.9 | 2.6 | 0.00 | 0.00 | 0.00 | 37 | 1009.8 |
| 20260503231004 | 58 | 281 | 0.9 | 1.7 | 0.00 | 0.00 | 0.00 | 36 | 1009.8 |
| 20260503230504 | 58 | 280 | 0.9 | 5.2 | 0.00 | 0.00 | 0.00 | 36 | 1009.8 |
| 20260503230004 | 58 | 313 | 1.7 | 6.1 | 0.00 | 0.00 | 0.00 | 35 | 1009.8 |
| 20260503225503 | 58 | 328 | 2.6 | 6.1 | 0.00 | 0.00 | 0.00 | 34 | 1009.7 |
| 20260503225004 | 58 | 276 | 2.6 | 5.2 | 0.00 | 0.00 | 0.00 | 34 | 1009.7 |
| 20260503224004 | 59 | 251 | 2.6 | 7.8 | 0.00 | 0.00 | 0.00 | 33 | 1009.6 |
| 20260503223504 | 59 | 236 | 1.7 | 5.2 | 0.00 | 0.00 | 0.00 | 34 | 1009.7 |
| 20260503223004 | 59 | 287 | 1.7 | 6.1 | 0.00 | 0.00 | 0.00 | 32 | 1009.6 |
| 20260503222503 | 59 | 294 | 4.3 | 7.0 | 0.00 | 0.00 | 0.00 | 32 | 1009.6 |
| 20260503220503 | 59 | 287 | 5.2 | 10.4 | 0.00 | 0.00 | 0.00 | 32 | 1009.4 |
| 20260503220004 | 59 | 273 | 3.5 | 7.0 | 0.00 | 0.00 | 0.00 | 32 | 1009.5 |
| 20260503215504 | 58 | 251 | 0.9 | 2.6 | 0.00 | 0.00 | 0.00 | 34 | 1009.5 |
| 20260503215005 | 59 | 250 | 0.0 | 5.2 | 0.00 | 0.00 | 0.00 | 34 | 1009.4 |
| 20260503214504 | 59 | 277 | 0.9 | 4.3 | 0.00 | 0.00 | 0.00 | 33 | 1009.4 |
| 20260503213504 | 60 | 306 | 1.7 | 7.0 | 0.00 | 0.00 | 0.00 | 31 | 1009.4 |
| 20260503213004 | 60 | 351 | 1.7 | 6.1 | 0.00 | 0.00 | 0.00 | 30 | 1009.3 |
| 20260503212504 | 59 | 5 | 2.6 | 6.1 | 0.00 | 0.00 | 0.00 | 30 | 1009.4 |
| 20260503212004 | 59 | 288 | 2.6 | 8.7 | 0.00 | 0.00 | 0.00 | 30 | 1009.5 |
| 20260503211504 | 59 | 310 | 4.3 | 7.8 | 0.00 | 0.00 | 0.00 | 29 | 1009.4 |
| 20260503211003 | 59 | 347 | 4.3 | 8.7 | 0.00 | 0.00 | 0.00 | 29 | 1009.3 |
| 20260503210504 | 59 | 2 | 3.5 | 7.0 | 0.00 | 0.00 | 0.00 | 29 | 1009.4 |
| 20260503205504 | 58 | 240 | 2.6 | 7.8 | 0.00 | 0.00 | 0.00 | 31 | 1009.4 |
| 20260503205004 | 58 | 296 | 4.3 | 13.0 | 0.00 | 0.00 | 0.00 | 30 | 1009.5 |
| 20260503203004 | 58 | 343 | 3.5 | 7.8 | 0.00 | 0.00 | 0.00 | 32 | 1009.6 |
| 20260503202504 | 58 | 265 | 4.3 | 7.8 | 0.00 | 0.00 | 0.00 | 33 | 1009.6 |
| 20260503202004 | 58 | 329 | 1.7 | 7.0 | 0.00 | 0.00 | 0.00 | 33 | 1009.6 |
| 20260503201503 | 57 | 309 | 4.3 | 13.0 | 0.00 | 0.00 | 0.00 | 32 | 1009.6 |
| 20260503201004 | 57 | 318 | 4.3 | 12.2 | 0.00 | 0.00 | 0.00 | 33 | 1009.6 |
| 20260503200503 | 57 | 272 | 2.6 | 7.8 | 0.00 | 0.00 | 0.00 | 33 | 1009.7 |
| 20260503200004 | 57 | 318 | 4.3 | 10.4 | 0.00 | 0.00 | 0.00 | 32 | 1009.6 |
| 20260503195503 | 57 | 348 | 1.7 | 7.0 | 0.00 | 0.00 | 0.00 | 33 | 1009.7 |
| 20260503195005 | 58 | 326 | 2.6 | 10.4 | 0.00 | 0.00 | 0.00 | 34 | 1009.8 |
| 20260503194504 | 58 | 320 | 4.3 | 8.7 | 0.00 | 0.00 | 0.00 | 32 | 1009.7 |
| 20260503194004 | 58 | 297 | 4.3 | 10.4 | 0.00 | 0.00 | 0.00 | 34 | 1009.7 |
| 20260503193004 | 58 | 268 | 2.6 | 8.7 | 0.00 | 0.00 | 0.00 | 34 | 1010.0 |
| 20260503192504 | 58 | 352 | 4.3 | 10.4 | 0.00 | 0.00 | 0.00 | 36 | 1010.1 |
| 20260503192004 | 57 | 324 | 2.6 | 7.8 | 0.00 | 0.00 | 0.00 | 35 | 1010.1 |
| 20260503191503 | 57 | 54 | 1.7 | 5.2 | 0.00 | 0.00 | 0.00 | 36 | 1010.1 |
| 20260503191004 | 56 | 318 | 1.7 | 8.7 | 0.00 | 0.00 | 0.00 | 37 | 1010.2 |
| 20260503190003 | 56 | 333 | 5.2 | 13.0 | 0.00 | 0.00 | 0.00 | 37 | 1010.3 |
| 20260503185504 | 56 | 281 | 4.3 | 10.4 | 0.00 | 0.00 | 0.00 | 37 | 1010.2 |
| 20260503185004 | 56 | 263 | 4.3 | 12.2 | 0.00 | 0.00 | 0.00 | 39 | 1010.4 |
| 20260503184504 | 55 | 300 | 4.3 | 10.4 | 0.00 | 0.00 | 0.00 | 38 | 1010.4 |
| 20260503184003 | 55 | 260 | 2.6 | 8.7 | 0.00 | 0.00 | 0.00 | 38 | 1010.4 |
| 20260503183504 | 55 | 284 | 2.6 | 6.1 | 0.00 | 0.00 | 0.00 | 38 | 1010.4 |
| 20260503183003 | 55 | 314 | 2.6 | 8.7 | 0.00 | 0.00 | 0.00 | 37 | 1010.4 |
| 20260503182505 | 55 | 310 | 1.7 | 10.4 | 0.00 | 0.00 | 0.00 | 39 | 1010.6 |
| 20260503182004 | 55 | 3 | 4.3 | 10.4 | 0.00 | 0.00 | 0.00 | 37 | 1010.5 |
| 20260503181504 | 55 | 29 | 2.6 | 13.0 | 0.00 | 0.00 | 0.00 | 39 | 1010.5 |
| 20260503181004 | 54 | 290 | 2.6 | 6.1 | 0.00 | 0.00 | 0.00 | 40 | 1010.5 |
| 20260503180004 | 54 | 292 | 4.3 | 7.8 | 0.00 | 0.00 | 0.00 | 38 | 1010.7 |
| 20260503175503 | 54 | 327 | 4.3 | 7.8 | 0.00 | 0.00 | 0.00 | 40 | 1010.8 |
| 20260503175004 | 53 | 269 | 3.5 | 7.0 | 0.00 | 0.00 | 0.00 | 39 | 1010.8 |
| 20260503174004 | 53 | 342 | 3.5 | 10.4 | 0.00 | 0.00 | 0.00 | 43 | 1011.0 |
| 20260503173504 | 52 | 262 | 1.7 | 7.0 | 0.00 | 0.00 | 0.00 | 42 | 1011.0 |
| 20260503173004 | 52 | 276 | 2.6 | 7.0 | 0.00 | 0.00 | 0.00 | 44 | 1011.0 |
| 20260503172504 | 51 | 272 | 2.6 | 6.1 | 0.00 | 0.00 | 0.00 | 46 | 1011.1 |
| 20260503172004 | 51 | 0 | 3.5 | 8.7 | 0.00 | 0.00 | 0.00 | 43 | 1011.1 |
| 20260503171004 | 50 | 310 | 5.2 | 10.4 | 0.00 | 0.00 | 0.00 | 43 | 1011.3 |
| 20260503170504 | 50 | 344 | 3.5 | 10.4 | 0.00 | 0.00 | 0.00 | 45 | 1011.2 |
| 20260503151004 | 50 | 350 | 2.6 | 7.8 | 0.00 | 0.00 | 0.00 | 41 | 1011.5 |
| 20260503150504 | 50 | 293 | 5.2 | 11.3 | 0.00 | 0.00 | 0.00 | 39 | 1011.4 |